Home > Weather > Geretsried > Past weeks

Flag for Germany Weather for the Past 2 Weeks in Geretsried, Bavaria, Germany

Now
46 °F

Cool.


Feels Like: 40 °F
Forecast: 34 / 50 °F
Wind: 14 mph from Southwest

Location: Altenstadt Airport

Current Time: Feb 7, 2016 at 3:04:26 AM

Latest Report: Feb 7, 2016 at 1:20 AM


Visibility: N/A

Pressure: 29.74 "Hg (27.62 "Hg at 609m altitude)

Humidity: 43%

Dew point: 25 °F

Location of GeretsriedLocation

Historic Weather in Geretsried — Graph

°F

Geretsried Temperature Yesterday

Maximum temperature yesterday: 55 °F (at 2:20 PM)
Minimum temperature yesterday: 27 °F (at 5:20 AM)
Average temperature yesterday: 39 °F

High & Low Weather Summary for the Past Weeks

 TemperatureHumidityPressure
High55 °F (Jan 26, 2:20 PM)100% (Jan 23, 10:20 PM)30.63 "Hg (Jan 23, 10:20 PM)
Low23 °F (Jan 24, 3:20 AM)38% (Feb 6, 2:20 PM)29.74 "Hg (Feb 7, 1:20 AM)
Average40 °F78%30.24 "Hg
* Reported Jan 23 1:20 AM — Feb 7 1:20 AM, Geretsried, Weather by CustomWeather, © 2016

Note: Actual official high and low records may vary slightly from our data, if they occured in-between our weather recording intervals... More about our weather records

Advertising

Geretsried Weather History for the Previous 24 Hours

 ConditionsComfort  
Time TempWeatherWind HumidityBarometerVisibility
1:20 AM
Sun, Feb 7
46 °FCool.14 mph43%29.74 "HgN/A
12:20 AM30 °FChilly.2 mph80%29.77 "HgN/A
11:20 PM
Sat, Feb 6
36 °FChilly.3 mph81%29.80 "HgN/A
10:20 PM36 °FChilly.2 mph81%29.83 "HgN/A
9:20 PM36 °FChilly.2 mph81%29.86 "HgN/A
8:20 PM37 °FChilly.3 mph75%29.86 "HgN/A
7:20 PM39 °FChilly.3 mph75%29.89 "HgN/A
6:20 PM43 °FQuite cool.2 mph66%29.92 "HgN/A
5:20 PM50 °FCool.5 mph43%29.95 "HgN/A
4:20 PM54 °FCool.5 mph47%29.98 "HgN/A
3:20 PM54 °FCool.7 mph44%30.01 "HgN/A
2:20 PM55 °FRefreshingly cool.12 mph38%30.01 "HgN/A
1:20 PM54 °FCool.2 mph47%30.07 "HgN/A
12:20 PM50 °FCool.1 mph58%30.09 "HgN/A
11:20 AM45 °FQuite cool.6 mph66%30.12 "HgN/A
10:20 AM39 °FChilly.3 mph75%30.12 "HgN/A
9:20 AM36 °FChilly.3 mph75%30.12 "HgN/A
8:20 AM30 °FChilly.3 mph93%30.12 "HgN/A
7:20 AM30 °FChilly.3 mph86%30.12 "HgN/A
6:20 AM30 °FChilly.2 mph93%30.15 "HgN/A
5:20 AM27 °FChilly.6 mph93%30.15 "HgN/A
4:20 AM28 °FChilly.3 mph93%30.15 "HgN/A
3:20 AM30 °FChilly.6 mph93%30.18 "HgN/A
Weather by CustomWeather, © 2016

See weather overviewHow to use our weather pages